Location: Olsztyn
(53.7767°N, 20.4765°E)
Time: 19:38:21
(UTC+02:00)

A-11 Canister half - Pass Details

Date: 19 January 2022
Orbit: 1513 x 1686 km, 47.2° (Epoch: 24 May)

Event Time Altitude Azimuth Distance (km) Brightness Sun altitude
Rises 18:30:52 0° 227° (SW) 4,713 12.4 -22.3°
Reaches altitude 10° 18:34:08 10° 221° (SW) 3,712 11.6 -22.8°
Maximum altitude 18:42:43 43° 154° (SSE) 2,018 9.4 -24.1°
Enters shadow 18:45:26 36° 117° (ESE) 2,246 9.4 -24.5°
